Camarillo, CA

3:50 PM PST on February 08, 2016 (GMT -0800)
Camarillo

Weather History for KCMA - November, 2014

Change the Weather History Date:

Sunday, November 2, 2014

  Actual Average Record
Temperature  
Mean Temperature 59 °F 61 °F  
Max Temperature 70 °F 72 °F 98 °F (1997)
Min Temperature 47 °F 50 °F 41 °F (1956)
Degree Days  
Heating Degree Days 6 5  
Month to date heating degree days 12 10  
Since 1 July heating degree days 19 133  
Cooling Degree Days 0 1  
Month to date cooling degree days 0 2  
Year to date cooling degree days 975 318  
Growing Degree Days 8 (Base 50)    
Moisture  
Dew Point 45 °F    
Average Humidity 62    
Maximum Humidity 86    
Minimum Humidity 37    
Precipitation  
Precipitation 0.00 in 0.05 in 0.40 in (1983)
Month to date precipitation 0.02 0.11  
Year to date precipitation 4.95 11.96  
Since 1 July precipitation 0.76  
Sea Level Pressure  
Sea Level Pressure 30.05 in    
Wind  
Wind Speed 4 mph (NNE)    
Max Wind Speed 12 mph    
Max Gust Speed 15 mph    
Visibility 10 miles    
Events      
T = Trace of Precipitation, MM = Missing Value Source: NWS Daily Summary

Daily Weather History Graph

Daily Weather History Graph

Search for Another Location

Airport or City:

Trip Planner

Search our weather history database for the weather conditions in past years. The results will help you decide how hot, cold, wet, or windy it might be!

Date:

Astronomy

Nov. 02, 2014 Rise Set
Actual Time 6:17 AM PST 5:02 PM PST
Civil Twilight 5:51 AM PST 5:28 PM PST
Nautical Twilight 5:21 AM PST 5:57 PM PST
Astronomical Twilight 4:52 AM PST 6:27 PM PST
Moon 2:25 PM PST (11/2) 1:38 AM PST (11/2)
Length of Visible Light 11h 36m
Length of Day
10h 45m
Waxing Gibbous, 79% of the Moon is Illuminated
Nov 2
Waxing Gibbous
Nov 6
Full
Nov 14
Last Quarter
Nov 22
New
Nov 29
First Quarter

Hourly Weather History & Observations

Time (PST) Temp. Dew Point Humidity Pressure Visibility Wind Dir Wind Speed Gust Speed Precip Events Conditions
12:55 AM 52.0 °F 46.9 °F 83% 30.00 in 10.0 mi Calm Calm - N/A   Clear
1:55 AM 52.0 °F 46.9 °F 83% 30.01 in 10.0 mi Calm Calm - N/A   Clear
1:55 AM 48.9 °F 45.0 °F 86% 30.01 in 10.0 mi West 3.5 mph - N/A   Clear
2:55 AM 48.9 °F 45.0 °F 86% 30.02 in 10.0 mi Calm Calm - N/A   Clear
3:55 AM 50.0 °F 46.0 °F 86% 30.02 in 10.0 mi ENE 3.5 mph - N/A   Clear
4:55 AM 48.9 °F 45.0 °F 86% 30.04 in 10.0 mi Calm Calm - N/A   Clear
5:55 AM 48.0 °F 44.1 °F 86% 30.05 in 10.0 mi NE 4.6 mph - N/A   Clear
6:55 AM 50.0 °F 45.0 °F 83% 30.06 in 10.0 mi NE 4.6 mph - N/A   Clear
7:55 AM 54.0 °F 48.0 °F 80% 30.08 in 10.0 mi Calm Calm - N/A   Clear
8:55 AM 62.1 °F 45.0 °F 53% 30.09 in 10.0 mi East 3.5 mph - N/A   Clear
9:55 AM 64.0 °F 45.0 °F 50% 30.08 in 10.0 mi Calm Calm - N/A   Clear
10:55 AM 66.0 °F 44.1 °F 45% 30.07 in 10.0 mi Variable 3.5 mph - N/A   Clear
11:55 AM 68.0 °F 41.0 °F 37% 30.05 in 10.0 mi SW 5.8 mph - N/A   Clear
12:55 PM 68.0 °F 42.1 °F 39% 30.02 in 10.0 mi WSW 5.8 mph - N/A   Clear
1:55 PM 69.1 °F 45.0 °F 42% 30.01 in 10.0 mi WSW 11.5 mph - N/A   Clear
2:55 PM 68.0 °F 45.0 °F 43% 30.02 in 10.0 mi WSW 8.1 mph - N/A   Clear
3:55 PM 66.9 °F 46.0 °F 47% 30.02 in 10.0 mi WSW 5.8 mph - N/A   Clear
4:55 PM 64.0 °F 48.0 °F 56% 30.03 in 10.0 mi WSW 3.5 mph - N/A   Clear
5:55 PM 63.0 °F 48.9 °F 60% 30.05 in 10.0 mi Calm Calm - N/A   Clear
6:55 PM 60.1 °F 48.0 °F 64% 30.06 in 10.0 mi ENE 6.9 mph - N/A   Clear
7:55 PM 59.0 °F 46.0 °F 62% 30.07 in 10.0 mi NE 8.1 mph - N/A   Clear
8:55 PM 57.9 °F 43.0 °F 58% 30.08 in 10.0 mi East 3.5 mph - N/A   Clear
9:55 PM 54.0 °F 43.0 °F 66% 30.09 in 10.0 mi Calm Calm - N/A   Clear
10:55 PM 55.9 °F 41.0 °F 57% 30.09 in 10.0 mi NNE 3.5 mph - N/A   Clear